[[{"header":{"parameterUnit":"m.s-1","parameterCategory":1,"la1":30.2992,"la2":30.254,"lo1":-89.0895,"lo2":-89.0443,"dy":0.0025,"dx":0.0025,"nx":19,"ny":19,"refTime":"2026-03-09T03:00:00:Z","depth":0,"parameterNumber":2,"parameterNumberName":"U-component_of_WINDS"},"data":[0,0,0,-0.36,-0.3599,-0.3561,-0.3561,-0.3513,-0.3512,0,0,0,0,0,0,0,0,0,0,0,-0.3614,-0.3613,-0.36,-0.3599,-0.3561,-0.3561,-0.3513,-0.3512,0,0,0,0,0,0,0,0,0,0,0,-0.3614,-0.3613,-0.3613,-0.3599,-0.3561,-0.3561,-0.3513,-0.3541,0,0,0,0,0,0,0,0,0,0,-0.3578,-0.3593,-0.3613,-0.3613,-0.3599,-0.3561,-0.3561,-0.3543,-0.354,-0.3531,0,-0.3525,0,-0.3518,-0.3509,-0.3509,0,0,0,-0.3598,-0.3595,-0.3583,-0.3613,-0.3599,-0.3561,-0.3578,-0.3541,-0.3537,-0.3527,-0.3524,-0.3522,-0.3517,-0.3509,-0.3509,-0.3467,-0.3467,0,0,-0.36,-0.3607,-0.3586,-0.3581,-0.3588,-0.3579,-0.3577,-0.3539,-0.3536,-0.3524,-0.3521,-0.3516,-0.3509,-0.3508,-0.3467,-0.3467,0,0,0,-0.3607,-0.3609,-0.3598,-0.3583,-0.3576,-0.3578,-0.3575,-0.3538,-0.3533,-0.3521,-0.3516,-0.3508,-0.3508,-0.3467,-0.3467,-0.3467,0,0,0,-0.3608,-0.3613,-0.3599,-0.3603,-0.3577,-0.3557,-0.3575,-0.3536,-0.3531,-0.3516,-0.3508,-0.3507,-0.3467,-0.3467,-0.3468,-0.3466,0,0,0,-0.3615,-0.3614,-0.3609,-0.3603,-0.3587,-0.3557,-0.3551,-0.3535,-0.3528,-0.3509,-0.3507,-0.3467,-0.3467,-0.3468,-0.3467,-0.3457,0,0,0,-0.3625,-0.3611,-0.3609,-0.3591,-0.3588,-0.3558,-0.3551,-0.3528,-0.3512,-0.3508,-0.3467,-0.3467,-0.3468,-0.3467,-0.3457,-0.3449,-0.3447,0,0,-0.3611,-0.3609,-0.3598,-0.3596,-0.3568,-0.3563,-0.3536,-0.3514,-0.3505,-0.348,-0.3478,-0.3468,-0.3467,-0.3457,-0.3433,-0.3431,0,0,0,-0.3596,-0.3588,-0.3579,-0.3564,-0.3547,-0.3531,-0.3512,-0.3504,-0.3482,-0.3494,-0.3461,-0.3461,-0.3455,-0.345,-0.3449,-0.3443,-0.3465,-0.3465,-0.3465,-0.3587,-0.3576,-0.3556,-0.3541,-0.3526,-0.3506,-0.3493,-0.3478,-0.3472,-0.3465,-0.3457,-0.3444,-0.3439,-0.3438,-0.3431,-0.3452,-0.3452,-0.3452,-0.3452,-0.3565,-0.3551,-0.3543,-0.3521,-0.3509,-0.349,-0.347,-0.3466,-0.3446,-0.3449,-0.3443,-0.3446,-0.3436,-0.343,-0.3452,-0.3452,-0.3452,-0.3452,-0.3452,-0.3557,-0.3549,-0.3539,-0.3515,-0.3497,-0.3482,-0.3463,-0.3453,-0.3444,-0.3438,-0.3428,-0.3428,-0.3426,-0.3434,-0.3434,-0.3434,-0.3434,-0.3434,-0.3434,-0.3553,-0.3542,-0.3527,-0.3507,-0.3495,-0.3478,-0.3457,-0.3445,-0.3429,-0.3424,-0.3424,-0.3418,-0.3438,-0.3442,-0.3433,-0.3433,-0.3433,-0.3433,-0.3433,-0.3534,-0.3536,-0.3514,-0.3502,-0.3476,-0.3459,-0.3447,-0.3423,-0.3411,-0.3402,-0.3397,-0.3414,-0.3411,-0.3412,-0.3416,-0.34,-0.34,-0.34,-0.34,-0.3527,-0.3525,-0.3498,-0.348,-0.3461,-0.3447,-0.342,-0.3404,-0.3387,-0.3379,-0.338,-0.3384,-0.3386,-0.3382,-0.3384,-0.3387,-0.3364,-0.3364,-0.3364,-0.3514,-0.3509,-0.3489,-0.3472,-0.3451,-0.3433,-0.3408,-0.3386,-0.3367,-0.3363,-0.3372,-0.3373,-0.338,-0.3384,-0.3379,-0.3382,-0.3388,0,0]},{"header":{"parameterUnit":"m.s-1","parameterCategory":1,"la1":30.2992,"la2":30.254,"lo1":-89.0895,"lo2":-89.0443,"dy":0.0025,"dx":0.0025,"nx":19,"ny":19,"refTime":"2026-03-09T03:00:00:Z","depth":0,"parameterNumber":3,"parameterNumberName":"V-component_of_WINDS"},"data":[0,0,0,1.6348,1.635,1.6463,1.6464,1.66,1.6601,0,0,0,0,0,0,0,0,0,0,0,1.6309,1.631,1.6348,1.6351,1.6463,1.6464,1.66,1.6601,0,0,0,0,0,0,0,0,0,0,0,1.6309,1.631,1.6311,1.6351,1.6463,1.6464,1.66,1.6518,0,0,0,0,0,0,0,0,0,0,1.641,1.6368,1.6309,1.6311,1.6352,1.6463,1.6464,1.6514,1.6523,1.6546,0,1.6563,0,1.6584,1.661,1.661,0,0,0,1.6355,1.636,1.6396,1.6311,1.6353,1.6463,1.6414,1.6519,1.6529,1.6558,1.6565,1.6571,1.6587,1.6611,1.6611,1.6726,1.6726,0,0,1.6349,1.6326,1.6389,1.6402,1.6383,1.641,1.6417,1.6525,1.6533,1.6566,1.6574,1.6589,1.6612,1.6613,1.6726,1.6726,0,0,0,1.6328,1.6322,1.6355,1.6396,1.6417,1.6413,1.6421,1.6528,1.6541,1.6576,1.6591,1.6612,1.6614,1.6725,1.6726,1.672,0,0,0,1.6325,1.631,1.6352,1.6339,1.6415,1.6473,1.6421,1.6533,1.6546,1.659,1.6612,1.6615,1.6725,1.6726,1.6719,1.6721,0,0,0,1.6304,1.6307,1.6321,1.6338,1.6385,1.6472,1.6491,1.6536,1.6555,1.6611,1.6616,1.6725,1.6726,1.6719,1.6721,1.6746,0,0,0,1.6275,1.6314,1.6321,1.6371,1.6384,1.6467,1.6491,1.6554,1.6601,1.6613,1.6725,1.6726,1.6719,1.672,1.6745,1.6763,1.6769,0,0,1.6312,1.6318,1.6349,1.6358,1.6434,1.6452,1.6528,1.6592,1.6619,1.6689,1.6692,1.672,1.672,1.6746,1.6804,1.6808,0,0,0,1.6353,1.6375,1.64,1.6443,1.6493,1.6537,1.6592,1.6617,1.6678,1.665,1.6736,1.6737,1.6753,1.6763,1.6766,1.6782,1.6729,1.6729,1.6729,1.6373,1.6404,1.6458,1.6504,1.6546,1.6603,1.664,1.6683,1.6702,1.6722,1.6744,1.6775,1.6786,1.6789,1.6805,1.6755,1.6755,1.6755,1.6755,1.643,1.6467,1.6493,1.6554,1.6588,1.6641,1.6698,1.671,1.6766,1.6761,1.6777,1.677,1.6792,1.6808,1.6755,1.6755,1.6755,1.6755,1.6755,1.6447,1.6471,1.6499,1.6566,1.6615,1.666,1.6712,1.674,1.6768,1.6783,1.681,1.681,1.6815,1.6794,1.6794,1.6794,1.6794,1.6794,1.6794,1.6454,1.6487,1.6526,1.6584,1.6616,1.6663,1.6721,1.6755,1.6799,1.6816,1.6817,1.6835,1.6788,1.6776,1.6796,1.6796,1.6796,1.6795,1.6795,1.6503,1.6497,1.6558,1.659,1.6661,1.6708,1.6744,1.681,1.6842,1.6867,1.6882,1.6842,1.685,1.6848,1.6838,1.6874,1.6874,1.6874,1.6874,1.6518,1.6525,1.6595,1.6645,1.6698,1.6737,1.6808,1.6855,1.6902,1.6924,1.6923,1.6913,1.6909,1.692,1.6916,1.6907,1.696,1.696,1.696,1.655,1.6564,1.6618,1.6663,1.6721,1.677,1.6838,1.6896,1.6949,1.6964,1.6943,1.6939,1.6922,1.6915,1.693,1.6923,1.6908,0,0]}]]